Hong Kong, Hong Kong

8:46 PM HKT on September 29, 2016 (GMT +0800)
Hong Kong International

Weather History for VHHH - March, 2013

Change the Weather History Date:

Saturday, March 9, 2013

  Actual Average Record
Temperature  
Mean Temperature 71 °F -  
Max Temperature 79 °F 70 °F 79 °F (2013)
Min Temperature 63 °F 61 °F 55 °F (2007)
Cooling Degree Days 6    
Growing Degree Days 21 (Base 50)    
Moisture  
Dew Point 54 °F    
Average Humidity 55    
Maximum Humidity 68    
Minimum Humidity 36    
Precipitation  
Precipitation 0.00 in - - ()
Sea Level Pressure  
Sea Level Pressure 29.96 in    
Wind  
Wind Speed 5 mph ()    
Max Wind Speed 15 mph    
Max Gust Speed -    
Visibility 6.4 miles    
Events      
Averages and records for this station are not official NWS values.
T = Trace of Precipitation, MM = Missing Value Source: Averaged Metar Reports

Daily Weather History Graph

Daily Weather History Graph

Search for Another Location

Airport or City:

Trip Planner

Search our weather history database for the weather conditions in past years. The results will help you decide how hot, cold, wet, or windy it might be!

Date:

Astronomy

Mar. 09, 2013 Rise Set
Actual Time 6:38 AM HKT 6:31 PM HKT
Civil Twilight 6:16 AM HKT 6:53 PM HKT
Nautical Twilight 5:50 AM HKT 7:19 PM HKT
Astronomical Twilight 5:24 AM HKT 7:45 PM HKT
Moon 4:24 AM HKT (3/9) 4:08 PM HKT (3/9)
Length of Visible Light 12h 37m
Length of Day
11h 52m
Waning Crescent, 9% of the Moon is Illuminated
Mar 9
Waning Crescent
Mar 12
New
Mar 20
First Quarter
Mar 27
Full
Apr 3
Last Quarter

Hourly Weather History & Observations

Time (HKT) Temp. Dew Point Humidity Pressure Visibility Wind Dir Wind Speed Gust Speed Precip Events Conditions
12:00 AM 69.8 °F 48.2 °F 46% 30.01 in - Variable 2.3 mph - N/A   Clear
12:30 AM 68.0 °F 50.0 °F 52% 29.98 in - East 5.8 mph - N/A   Clear
1:00 AM 68.0 °F 50.0 °F 52% 29.98 in - East 3.5 mph - N/A   Clear
1:30 AM 68.0 °F 50.0 °F 52% 29.98 in - Variable 2.3 mph - N/A   Clear
2:00 AM 67 °F 49 °F 41% 29.97 in 7 mi 2.2 mph - -  
2:00 AM 68.0 °F 48.2 °F 49% 29.98 in - Variable 3.5 mph - N/A   Clear
2:30 AM 64.4 °F 48.2 °F 56% 29.95 in - SE 3.5 mph - N/A   Clear
3:00 AM 64.4 °F 48.2 °F 56% 29.95 in - SE 3.5 mph - N/A   Clear
3:30 AM 66.2 °F 48.2 °F 52% 29.95 in - East 3.5 mph - N/A   Clear
4:00 AM 64.4 °F 48.2 °F 56% 29.95 in - East 4.6 mph - N/A   Clear
4:30 AM 64.4 °F 48.2 °F 56% 29.95 in - ESE 3.5 mph - N/A   Clear
5:00 AM 64.4 °F 51.8 °F 64% 29.95 in - ESE 4.6 mph - N/A   Clear
5:30 AM 64.4 °F 53.6 °F 68% 29.95 in - ESE 3.5 mph - N/A   Clear
6:00 AM 64.4 °F 51.8 °F 64% 29.95 in - East 5.8 mph - N/A   Clear
6:30 AM 64.4 °F 50.0 °F 59% 29.95 in - SE 3.5 mph - N/A   Clear
7:00 AM 64.4 °F 53.6 °F 68% 29.95 in - Variable 3.5 mph - N/A   Clear
7:30 AM 64.4 °F 53.6 °F 68% 29.98 in 6.2 mi Variable 3.5 mph - N/A   Partly Cloudy
8:00 AM 68 °F 57 °F 58% 29.99 in 7 mi 2.2 mph - -   Scattered Clouds
8:00 AM 68.0 °F 57.2 °F 68% 29.98 in 6.2 mi Variable 2.3 mph - N/A   Partly Cloudy
8:30 AM 71.6 °F 55.4 °F 57% 29.98 in 6.2 mi ENE 5.8 mph - N/A   Partly Cloudy
9:00 AM 71.6 °F 59.0 °F 64% 29.98 in - ENE 9.2 mph - N/A   Clear
9:30 AM 73.4 °F 59.0 °F 61% 30.01 in - NE 9.2 mph - N/A   Clear
10:00 AM 73.4 °F 57.2 °F 57% 30.01 in 6.2 mi NNE 8.1 mph - N/A   Partly Cloudy
10:30 AM 75.2 °F 57.2 °F 53% 30.01 in 6.2 mi North 5.8 mph - N/A   Partly Cloudy
11:00 AM 73.4 °F 57.2 °F 57% 30.01 in 6.2 mi WNW 6.9 mph - N/A   Partly Cloudy
11:30 AM 73.4 °F 57.2 °F 57% 30.01 in 6.2 mi WNW 6.9 mph - N/A   Partly Cloudy
12:00 PM 77.0 °F 57.2 °F 50% 29.98 in 6.2 mi West 11.5 mph - N/A   Partly Cloudy
12:30 PM 77.0 °F 55.4 °F 47% 29.98 in 6.2 mi West 12.7 mph - N/A   Partly Cloudy
1:00 PM 78.8 °F 51.8 °F 39% 29.95 in 6.2 mi SW 15.0 mph - N/A   Partly Cloudy
1:30 PM 78.8 °F 51.8 °F 39% 29.95 in 6.2 mi West 13.8 mph - N/A   Partly Cloudy
2:00 PM 77 °F 57 °F 40% 29.95 in 7 mi 6.7 mph - -   Scattered Clouds
2:00 PM 77.0 °F 57.2 °F 50% 29.95 in 6.2 mi Variable 6.9 mph - N/A   Partly Cloudy
2:30 PM 77.0 °F 57.2 °F 50% 29.92 in 6.2 mi ENE 6.9 mph - N/A   Partly Cloudy
3:00 PM 77.0 °F 57.2 °F 50% 29.92 in - North 6.9 mph - N/A   Clear
3:30 PM 77.0 °F 57.2 °F 50% 29.92 in - Variable 5.8 mph - N/A   Clear
4:00 PM 75.2 °F 55.4 °F 50% 29.89 in - ENE 6.9 mph - N/A   Clear
4:30 PM 77.0 °F 55.4 °F 47% 29.89 in - NNE 5.8 mph - N/A   Clear
5:00 PM 77.0 °F 48.2 °F 36% 29.89 in - North 5.8 mph - N/A   Clear
5:30 PM 75.2 °F 51.8 °F 44% 29.89 in - North 3.5 mph - N/A   Clear
6:00 PM 73.4 °F 57.2 °F 57% 29.92 in - South 11.5 mph - N/A   Clear
6:30 PM 71.6 °F 59.0 °F 64% 29.92 in 6.2 mi SSE 9.2 mph - N/A   Partly Cloudy
7:00 PM 71.6 °F 57.2 °F 60% 29.92 in 6.2 mi South 9.2 mph - N/A   Partly Cloudy
7:30 PM 71.6 °F 53.6 °F 53% 29.92 in 6.2 mi Variable 4.6 mph - N/A   Partly Cloudy
8:00 PM 71 °F 57 °F 53% 29.95 in 9 mi 2.2 mph - -   Scattered Clouds
8:00 PM 69.8 °F 57.2 °F 64% 29.95 in 6.2 mi Variable 2.3 mph - N/A   Partly Cloudy
8:30 PM 71.6 °F 57.2 °F 60% 29.95 in 6.2 mi Variable 3.5 mph - N/A   Partly Cloudy
9:00 PM 69.8 °F 57.2 °F 64% 29.95 in 6.2 mi Variable 3.5 mph - N/A   Partly Cloudy
9:30 PM 69.8 °F 57.2 °F 64% 29.98 in 6.2 mi NNE 3.5 mph - N/A   Partly Cloudy
10:00 PM 69.8 °F 55.4 °F 60% 29.98 in 6.2 mi Variable 4.6 mph - N/A   Partly Cloudy
10:30 PM 69.8 °F 57.2 °F 64% 29.98 in 6.2 mi NE 3.5 mph - N/A   Partly Cloudy
11:00 PM 69.8 °F 57.2 °F 64% 29.98 in 6.2 mi NE 4.6 mph - N/A   Partly Cloudy
11:30 PM 69.8 °F 57.2 °F 64% 29.98 in 6.2 mi ENE 4.6 mph - N/A   Partly Cloudy